Location: Eastchurch
(51.4000°N, 0.8667°E)
Time: 23:21:40
(UTC+00:00)

Cosmos 2181 Rocket - Pass Details

Date: 19 January 2026
Orbit: 952 x 1013 km, 82.9° (Epoch: 9 February)

Event Time Altitude Azimuth Distance (km) Brightness Sun altitude
Rises 17:04:24 0° 170° (S) 3,627 7.2 -6.4°
Reaches altitude 10° 17:06:56 10° 165° (SSE) 2,691 6.5 -6.8°
Maximum altitude 17:12:52 52° 91° (E) 1,194 4.2 -7.6°
Drops below altitude 10° 17:18:55 10° 18° (NNE) 2,747 6.0 -8.5°
Sets 17:21:31 0° 13° (NNE) 3,709 6.7 -8.9°
